Location: Powder Track
(41.8531°N, 72.3584°W)
Time: 02:12:22
(UTC+00:00)

Tiros 1 despin weight - Pass Details

Date: 29 July 2021
Orbit: 593 x 641 km, 48.2° (Epoch: 28 September)

Event Time Altitude Azimuth Distance (km) Brightness Sun altitude
Rises 02:28:09 0° 287° (WNW) 2,924 ? -20.5°
Reaches altitude 10° 02:31:04 10° 270° (W) 2,004 ? -20.8°
Maximum altitude 02:34:14 18° 226° (SW) 1,512 ? -21.1°
Enters shadow 02:34:44 18° 217° (SW) 1,524 ? -21.2°
